Regional Weather Roundup
Issued by NWS Raleigh/Durham, NC

Current Version | Previous Version | Text Only | Print | Product List | Glossary On
Versions: 1 2 3 4 5 6 7 8 9 10 11 12 13 14 15 16 17 18 19 20 21 22 23 24 25 26 27 28 29 30 31 32 33 34 35 36 37 38 39 40 41 42 43 44 45 46 47 48 49 50
000
ASUS42 KRAH 291110
RWRRAH
NORTH CAROLINA WEATHER ROUNDUP
NATIONAL WEATHER SERVICE RALEIGH NC
700 AM EDT TUE JUL 29 2014

NOTE: "FAIR" INDICATES FEW OR NO CLOUDS BELOW 12,000 FEET WITH NO
SIGNIFICANT WEATHER AND/OR OBSTRUCTIONS TO VISIBILITY.

NCZ001-053-055-056-065-067-291200-
WESTERN NORTH CAROLINA

CITY           SKY/WX    TMP DP  RH WIND       PRES   REMARKS
ASHEVILLE      CLEAR     59  55  87 N6        30.03R
JEFFERSON      CLEAR     57  48  71 NW9G17    30.03R
MORGANTON      CLEAR     54  54 100 CALM      30.02R
HICKORY        CLEAR     63  55  75 NW5       29.97R
RUTHERFORDTON  CLEAR     64  56  77 NE6       29.98R
MOUNT AIRY     CLOUDY    60  56  87 CALM      29.97R
BOONE          CLEAR     56  51  82 W9        30.05R
$$

NCZ021-022-025-041-071-084-088-291200-
CENTRAL NORTH CAROLINA

CITY           SKY/WX    TMP DP  RH WIND       PRES   REMARKS
CHARLOTTE      MOCLDY    63  57  81 N3        29.97R
GREENSBORO     MOCLDY    62  56  80 CALM      29.96R
WINSTON-SALEM  CLEAR     61  55  81 CALM      29.98R
RALEIGH-DURHAM MOCLDY    66  57  72 CALM      29.94R
FORT BRAGG     PTCLDY    68  59  73 N6        29.93R
FAYETTEVILLE   CLOUDY    70  59  68 N8        29.92R
BURLINGTON     CLOUDY    62  56  80 CALM      29.96R
LAURINBURG     CLOUDY    66  59  78 N5        29.93R
$$

NCZ011-015-027-028-043-044-047-080-103-291200-
NORTHEASTERN NORTH CAROLINA

CITY           SKY/WX    TMP DP  RH WIND       PRES   REMARKS
ROCKY MT-WILSO CLOUDY    66  59  78 NE5       29.93R
GREENVILLE     CLOUDY    66  61  82 N3        29.94R
WASHINGTON     CLOUDY    67  61  81 N3        29.91R
ELIZABETH CITY MOCLDY    69  61  75 N12       29.89R
MANTEO         NOT AVBL
CAPE HATTERAS  PTCLDY    75  67  76 NE6       29.86S
$$

NCZ078-087-090-091-093-098-101-291200-
SOUTHEASTERN NORTH CAROLINA

CITY           SKY/WX    TMP DP  RH WIND       PRES   REMARKS
LUMBERTON      PTCLDY    68  62  81 N3        29.91R
GOLDSBORO      CLOUDY    69  62  79 N6        29.90R
KINSTON        CLEAR     66  63  88 N5        29.92R
KENANSVILLE    MOCLDY    66  61  82 NW5       29.92R
NEW BERN       CLOUDY    71  62  73 N6        29.91R
CHERRY POINT   PTCLDY    71  63  75 N8        29.89S
BEAUFORT       CLEAR     71  65  81 N6        29.87S
JACKSONVILLE   PTCLDY    69  62  78 N6        29.89R
WILMINGTON     PTCLDY    69  63  81 N5        29.89R
$$




USA.gov is the U.S. government's official web portal to all federal, state and local government web resources and services.